#datetime,building,power
2022-12-24T00:00:00,prt,19.38
2022-12-24T00:01:00,prt,23.51
2022-12-24T00:02:00,prt,19.60
2022-12-24T00:03:00,prt,14.93
2022-12-24T00:04:00,prt,17.51
2022-12-24T00:05:00,prt,16.86
2022-12-24T00:06:00,prt,18.24
2022-12-24T00:07:00,prt,21.23
2022-12-24T00:08:00,prt,20.34
2022-12-24T00:09:00,prt,19.16
2022-12-24T00:10:00,prt,17.03
2022-12-24T00:11:00,prt,22.23
2022-12-24T00:12:00,prt,23.18
2022-12-24T00:13:00,prt,23.18
2022-12-24T00:14:00,prt,25.92
2022-12-24T00:15:00,prt,19.11
2022-12-24T00:16:00,prt,17.77
2022-12-24T00:17:00,prt,14.97
2022-12-24T00:18:00,prt,14.95
2022-12-24T00:19:00,prt,15.11
2022-12-24T00:20:00,prt,15.62
2022-12-24T00:21:00,prt,15.55
2022-12-24T00:22:00,prt,17.18
2022-12-24T00:23:00,prt,18.01
2022-12-24T00:24:00,prt,20.67
2022-12-24T00:25:00,prt,22.53
2022-12-24T00:26:00,prt,19.04
2022-12-24T00:27:00,prt,17.80
2022-12-24T00:28:00,prt,16.91
2022-12-24T00:29:00,prt,15.08
2022-12-24T00:30:00,prt,15.32
2022-12-24T00:31:00,prt,14.66
2022-12-24T00:32:00,prt,17.90
2022-12-24T00:33:00,prt,19.51
2022-12-24T00:34:00,prt,17.41
2022-12-24T00:35:00,prt,14.07
2022-12-24T00:36:00,prt,14.35
2022-12-24T00:37:00,prt,16.34
2022-12-24T00:38:00,prt,14.42
2022-12-24T00:39:00,prt,14.69
2022-12-24T00:40:00,prt,16.94
2022-12-24T00:41:00,prt,17.08
2022-12-24T00:42:00,prt,16.32
2022-12-24T00:43:00,prt,15.93
2022-12-24T00:44:00,prt,15.92
2022-12-24T00:45:00,prt,15.72
2022-12-24T00:46:00,prt,14.69
2022-12-24T00:47:00,prt,14.34
2022-12-24T00:48:00,prt,15.68
2022-12-24T00:49:00,prt,15.91
2022-12-24T00:50:00,prt,16.67
2022-12-24T00:51:00,prt,23.18
2022-12-24T00:52:00,prt,27.76
2022-12-24T00:53:00,prt,23.63
2022-12-24T00:54:00,prt,21.50
2022-12-24T00:55:00,prt,19.11
2022-12-24T00:56:00,prt,16.14
2022-12-24T00:57:00,prt,16.07
2022-12-24T00:58:00,prt,12.44
2022-12-24T00:59:00,prt,14.64
2022-12-24T01:00:00,prt,15.84
2022-12-24T01:01:00,prt,15.34
2022-12-24T01:02:00,prt,15.24
2022-12-24T01:03:00,prt,16.40
2022-12-24T01:04:00,prt,14.68
2022-12-24T01:05:00,prt,14.74
2022-12-24T01:06:00,prt,16.37
2022-12-24T01:07:00,prt,16.02
2022-12-24T01:08:00,prt,14.27
2022-12-24T01:09:00,prt,13.12
2022-12-24T01:10:00,prt,13.55
2022-12-24T01:11:00,prt,17.62
2022-12-24T01:12:00,prt,20.68
2022-12-24T01:13:00,prt,21.14
2022-12-24T01:14:00,prt,20.71
2022-12-24T01:15:00,prt,20.90
2022-12-24T01:16:00,prt,18.80
2022-12-24T01:17:00,prt,16.55
2022-12-24T01:18:00,prt,17.69
2022-12-24T01:19:00,prt,18.23
2022-12-24T01:20:00,prt,19.72
2022-12-24T01:21:00,prt,19.55
2022-12-24T01:22:00,prt,15.21
2022-12-24T01:23:00,prt,15.02
2022-12-24T01:24:00,prt,15.22
2022-12-24T01:25:00,prt,16.40
2022-12-24T01:26:00,prt,15.72
2022-12-24T01:27:00,prt,14.05
2022-12-24T01:28:00,prt,13.67
2022-12-24T01:29:00,prt,14.19
2022-12-24T01:30:00,prt,14.90
2022-12-24T01:31:00,prt,17.59
2022-12-24T01:32:00,prt,20.20
2022-12-24T01:33:00,prt,18.57
2022-12-24T01:34:00,prt,16.08
2022-12-24T01:35:00,prt,15.81
2022-12-24T01:36:00,prt,16.48
2022-12-24T01:37:00,prt,15.09
2022-12-24T01:38:00,prt,17.89
2022-12-24T01:39:00,prt,20.43
2022-12-24T01:40:00,prt,22.53
2022-12-24T01:41:00,prt,18.51
2022-12-24T01:42:00,prt,15.98
2022-12-24T01:43:00,prt,14.79
2022-12-24T01:44:00,prt,14.90
2022-12-24T01:45:00,prt,17.34
2022-12-24T01:46:00,prt,15.27
2022-12-24T01:47:00,prt,15.56
2022-12-24T01:48:00,prt,15.70
2022-12-24T01:49:00,prt,13.43
2022-12-24T01:50:00,prt,13.36
2022-12-24T01:51:00,prt,16.97
2022-12-24T01:52:00,prt,17.64
2022-12-24T01:53:00,prt,16.89
2022-12-24T01:54:00,prt,13.32
2022-12-24T01:55:00,prt,13.43
2022-12-24T01:56:00,prt,14.97
2022-12-24T01:57:00,prt,15.47
2022-12-24T01:58:00,prt,13.75
2022-12-24T01:59:00,prt,16.53
2022-12-24T02:00:00,prt,16.11
2022-12-24T02:01:00,prt,15.38
2022-12-24T02:02:00,prt,14.80
2022-12-24T02:03:00,prt,16.01
2022-12-24T02:04:00,prt,16.22
2022-12-24T02:05:00,prt,16.66
2022-12-24T02:06:00,prt,19.92
2022-12-24T02:07:00,prt,18.99
2022-12-24T02:08:00,prt,16.57
2022-12-24T02:09:00,prt,19.40
2022-12-24T02:10:00,prt,21.88
2022-12-24T02:11:00,prt,22.54
2022-12-24T02:12:00,prt,24.86
2022-12-24T02:13:00,prt,20.62
2022-12-24T02:14:00,prt,17.46
2022-12-24T02:15:00,prt,17.21
2022-12-24T02:16:00,prt,16.05
2022-12-24T02:17:00,prt,16.55
2022-12-24T02:18:00,prt,17.94
2022-12-24T02:19:00,prt,17.62
2022-12-24T02:20:00,prt,19.80
2022-12-24T02:21:00,prt,17.56
2022-12-24T02:22:00,prt,17.56
2022-12-24T02:23:00,prt,16.41
2022-12-24T02:24:00,prt,21.13
2022-12-24T02:25:00,prt,24.10
2022-12-24T02:26:00,prt,19.60
2022-12-24T02:27:00,prt,14.90
2022-12-24T02:28:00,prt,15.48
2022-12-24T02:29:00,prt,15.26
2022-12-24T02:30:00,prt,19.56
2022-12-24T02:31:00,prt,18.11
2022-12-24T02:32:00,prt,17.89
2022-12-24T02:33:00,prt,14.98
2022-12-24T02:34:00,prt,16.95
2022-12-24T02:35:00,prt,15.83
2022-12-24T02:36:00,prt,14.10
2022-12-24T02:37:00,prt,15.63
2022-12-24T02:38:00,prt,15.88
2022-12-24T02:39:00,prt,18.71
2022-12-24T02:40:00,prt,17.95
2022-12-24T02:41:00,prt,17.75
2022-12-24T02:42:00,prt,18.51
2022-12-24T02:43:00,prt,17.02
2022-12-24T02:44:00,prt,17.30
2022-12-24T02:45:00,prt,16.76
2022-12-24T02:46:00,prt,15.63
2022-12-24T02:47:00,prt,14.20
2022-12-24T02:48:00,prt,13.69
2022-12-24T02:49:00,prt,15.16
2022-12-24T02:50:00,prt,14.85
2022-12-24T02:51:00,prt,19.15
2022-12-24T02:52:00,prt,13.77
2022-12-24T02:53:00,prt,15.60
2022-12-24T02:54:00,prt,14.82
2022-12-24T02:55:00,prt,15.12
2022-12-24T02:56:00,prt,15.81
2022-12-24T02:57:00,prt,16.58
2022-12-24T02:58:00,prt,14.03
2022-12-24T02:59:00,prt,14.76
2022-12-24T03:00:00,prt,14.17
2022-12-24T03:01:00,prt,14.55
2022-12-24T03:02:00,prt,13.91
2022-12-24T03:03:00,prt,19.44
2022-12-24T03:04:00,prt,18.76
2022-12-24T03:05:00,prt,26.42
2022-12-24T03:06:00,prt,27.77
2022-12-24T03:07:00,prt,21.64
2022-12-24T03:08:00,prt,17.43
2022-12-24T03:09:00,prt,22.75
2022-12-24T03:10:00,prt,20.69
2022-12-24T03:11:00,prt,19.29
2022-12-24T03:12:00,prt,16.29
2022-12-24T03:13:00,prt,17.00
2022-12-24T03:14:00,prt,15.26
2022-12-24T03:15:00,prt,15.66
2022-12-24T03:16:00,prt,16.00
2022-12-24T03:17:00,prt,16.73
2022-12-24T03:18:00,prt,16.80
2022-12-24T03:19:00,prt,15.68
2022-12-24T03:20:00,prt,15.74
2022-12-24T03:21:00,prt,16.30
2022-12-24T03:22:00,prt,16.27
2022-12-24T03:23:00,prt,15.52
2022-12-24T03:24:00,prt,14.88
2022-12-24T03:25:00,prt,14.03
2022-12-24T03:26:00,prt,13.85
2022-12-24T03:27:00,prt,13.60
2022-12-24T03:28:00,prt,17.02
2022-12-24T03:29:00,prt,17.80
2022-12-24T03:30:00,prt,16.25
2022-12-24T03:31:00,prt,14.08
2022-12-24T03:32:00,prt,14.10
2022-12-24T03:33:00,prt,17.37
2022-12-24T03:34:00,prt,16.25
2022-12-24T03:35:00,prt,18.37
2022-12-24T03:36:00,prt,19.01
2022-12-24T03:37:00,prt,16.09
2022-12-24T03:38:00,prt,15.18
2022-12-24T03:39:00,prt,14.26
2022-12-24T03:40:00,prt,15.48
2022-12-24T03:41:00,prt,14.68
2022-12-24T03:42:00,prt,13.77
2022-12-24T03:43:00,prt,13.97
2022-12-24T03:44:00,prt,14.17
2022-12-24T03:45:00,prt,22.89
2022-12-24T03:46:00,prt,18.98
2022-12-24T03:47:00,prt,17.74
2022-12-24T03:48:00,prt,18.72
2022-12-24T03:49:00,prt,18.85
2022-12-24T03:50:00,prt,18.78
2022-12-24T03:51:00,prt,18.68
2022-12-24T03:52:00,prt,17.49
2022-12-24T03:53:00,prt,16.76
2022-12-24T03:54:00,prt,22.03
2022-12-24T03:55:00,prt,21.70
2022-12-24T03:56:00,prt,22.52
2022-12-24T03:57:00,prt,19.49
2022-12-24T03:58:00,prt,19.23
2022-12-24T03:59:00,prt,15.91
2022-12-24T04:00:00,prt,17.99
2022-12-24T04:01:00,prt,18.06
2022-12-24T04:02:00,prt,18.48
2022-12-24T04:03:00,prt,18.18
2022-12-24T04:04:00,prt,15.38
2022-12-24T04:05:00,prt,14.73
2022-12-24T04:06:00,prt,13.86
2022-12-24T04:07:00,prt,17.34
2022-12-24T04:08:00,prt,17.39
2022-12-24T04:09:00,prt,17.26
2022-12-24T04:10:00,prt,14.92
2022-12-24T04:11:00,prt,14.97
2022-12-24T04:12:00,prt,14.98
2022-12-24T04:13:00,prt,18.16
2022-12-24T04:14:00,prt,19.11
2022-12-24T04:15:00,prt,18.48
2022-12-24T04:16:00,prt,18.14
2022-12-24T04:17:00,prt,14.93
2022-12-24T04:18:00,prt,14.80
2022-12-24T04:19:00,prt,15.14
2022-12-24T04:20:00,prt,14.76
2022-12-24T04:21:00,prt,14.08
2022-12-24T04:22:00,prt,16.27
2022-12-24T04:23:00,prt,13.28
2022-12-24T04:24:00,prt,12.74
2022-12-24T04:25:00,prt,14.30
2022-12-24T04:26:00,prt,23.45
2022-12-24T04:27:00,prt,26.86
2022-12-24T04:28:00,prt,22.97
2022-12-24T04:29:00,prt,18.23
2022-12-24T04:30:00,prt,16.52
2022-12-24T04:31:00,prt,14.76
2022-12-24T04:32:00,prt,14.12
2022-12-24T04:33:00,prt,17.87
2022-12-24T04:34:00,prt,17.02
2022-12-24T04:35:00,prt,16.23
2022-12-24T04:36:00,prt,15.75
2022-12-24T04:37:00,prt,15.00
2022-12-24T04:38:00,prt,16.72
2022-12-24T04:39:00,prt,17.42
2022-12-24T04:40:00,prt,17.61
2022-12-24T04:41:00,prt,17.47
2022-12-24T04:42:00,prt,15.01
2022-12-24T04:43:00,prt,14.33
2022-12-24T04:44:00,prt,13.25
2022-12-24T04:45:00,prt,16.68
2022-12-24T04:46:00,prt,19.89
2022-12-24T04:47:00,prt,22.50
2022-12-24T04:48:00,prt,18.89
2022-12-24T04:49:00,prt,18.73
2022-12-24T04:50:00,prt,19.23
2022-12-24T04:51:00,prt,16.35
2022-12-24T04:52:00,prt,18.96
2022-12-24T04:53:00,prt,20.10
2022-12-24T04:54:00,prt,20.31
2022-12-24T04:55:00,prt,16.78
2022-12-24T04:56:00,prt,16.29
2022-12-24T04:57:00,prt,16.43
2022-12-24T04:58:00,prt,13.36
2022-12-24T04:59:00,prt,13.92
2022-12-24T05:00:00,prt,13.74
2022-12-24T05:01:00,prt,13.92
2022-12-24T05:02:00,prt,15.69
2022-12-24T05:03:00,prt,15.14
2022-12-24T05:04:00,prt,15.54
2022-12-24T05:05:00,prt,18.47
2022-12-24T05:06:00,prt,24.69
2022-12-24T05:07:00,prt,20.85
2022-12-24T05:08:00,prt,15.41
2022-12-24T05:09:00,prt,14.78
2022-12-24T05:10:00,prt,15.11
2022-12-24T05:11:00,prt,16.33
2022-12-24T05:12:00,prt,19.00
2022-12-24T05:13:00,prt,17.58
2022-12-24T05:14:00,prt,20.38
2022-12-24T05:15:00,prt,19.06
2022-12-24T05:16:00,prt,19.15
2022-12-24T05:17:00,prt,19.35
2022-12-24T05:18:00,prt,19.17
2022-12-24T05:19:00,prt,20.34
2022-12-24T05:20:00,prt,15.88
2022-12-24T05:21:00,prt,18.26
2022-12-24T05:22:00,prt,18.04
2022-12-24T05:23:00,prt,17.62
2022-12-24T05:24:00,prt,21.14
2022-12-24T05:25:00,prt,22.06
2022-12-24T05:26:00,prt,16.77
2022-12-24T05:27:00,prt,15.26
2022-12-24T05:28:00,prt,14.98
2022-12-24T05:29:00,prt,14.05
2022-12-24T05:30:00,prt,13.01
2022-12-24T05:31:00,prt,15.85
2022-12-24T05:32:00,prt,16.13
2022-12-24T05:33:00,prt,17.14
2022-12-24T05:34:00,prt,15.71
2022-12-24T05:35:00,prt,17.94
2022-12-24T05:36:00,prt,16.72
2022-12-24T05:37:00,prt,15.49
2022-12-24T05:38:00,prt,17.32
2022-12-24T05:39:00,prt,16.70
2022-12-24T05:40:00,prt,16.99
2022-12-24T05:41:00,prt,18.76
2022-12-24T05:42:00,prt,18.01
2022-12-24T05:43:00,prt,22.21
2022-12-24T05:44:00,prt,21.19
2022-12-24T05:45:00,prt,17.87
2022-12-24T05:46:00,prt,21.61
2022-12-24T05:47:00,prt,19.67
2022-12-24T05:48:00,prt,17.56
2022-12-24T05:49:00,prt,18.49
2022-12-24T05:50:00,prt,22.13
2022-12-24T05:51:00,prt,22.33
2022-12-24T05:52:00,prt,20.30
2022-12-24T05:53:00,prt,19.05
2022-12-24T05:54:00,prt,15.64
2022-12-24T05:55:00,prt,14.84
2022-12-24T05:56:00,prt,15.83
2022-12-24T05:57:00,prt,17.41
2022-12-24T05:58:00,prt,17.62
2022-12-24T05:59:00,prt,17.70
2022-12-24T06:00:00,prt,17.62
2022-12-24T06:01:00,prt,17.45
2022-12-24T06:02:00,prt,22.05
2022-12-24T06:03:00,prt,21.98
2022-12-24T06:04:00,prt,18.43
2022-12-24T06:05:00,prt,17.13
2022-12-24T06:06:00,prt,17.70
2022-12-24T06:07:00,prt,17.43
2022-12-24T06:08:00,prt,17.31
2022-12-24T06:09:00,prt,15.60
2022-12-24T06:10:00,prt,15.78
2022-12-24T06:11:00,prt,14.33
2022-12-24T06:12:00,prt,14.65
2022-12-24T06:13:00,prt,16.83
2022-12-24T06:14:00,prt,17.42
2022-12-24T06:15:00,prt,22.93
2022-12-24T06:16:00,prt,25.61
2022-12-24T06:17:00,prt,21.30
2022-12-24T06:18:00,prt,20.28
2022-12-24T06:19:00,prt,17.34
2022-12-24T06:20:00,prt,16.37
2022-12-24T06:21:00,prt,20.21
2022-12-24T06:22:00,prt,17.52
2022-12-24T06:23:00,prt,14.98
2022-12-24T06:24:00,prt,14.88
2022-12-24T06:25:00,prt,20.27
2022-12-24T06:26:00,prt,19.24
2022-12-24T06:27:00,prt,15.32
2022-12-24T06:28:00,prt,16.27
2022-12-24T06:29:00,prt,14.62
2022-12-24T06:30:00,prt,18.50
2022-12-24T06:31:00,prt,18.20
2022-12-24T06:32:00,prt,18.28
2022-12-24T06:33:00,prt,18.26
2022-12-24T06:34:00,prt,18.77
2022-12-24T06:35:00,prt,18.48
2022-12-24T06:36:00,prt,15.02
2022-12-24T06:37:00,prt,15.31
2022-12-24T06:38:00,prt,15.55
2022-12-24T06:39:00,prt,18.28
2022-12-24T06:40:00,prt,19.74
2022-12-24T06:41:00,prt,18.31
2022-12-24T06:42:00,prt,20.90
2022-12-24T06:43:00,prt,18.55
2022-12-24T06:44:00,prt,18.09
2022-12-24T06:45:00,prt,18.99
2022-12-24T06:46:00,prt,16.47
2022-12-24T06:47:00,prt,16.90
2022-12-24T06:48:00,prt,19.42
2022-12-24T06:49:00,prt,17.29
2022-12-24T06:50:00,prt,18.50
2022-12-24T06:51:00,prt,15.83
2022-12-24T06:52:00,prt,13.91
2022-12-24T06:53:00,prt,15.48
2022-12-24T06:54:00,prt,14.83
2022-12-24T06:55:00,prt,15.46
2022-12-24T06:56:00,prt,14.30
2022-12-24T06:57:00,prt,13.98
2022-12-24T06:58:00,prt,19.43
2022-12-24T06:59:00,prt,22.11
2022-12-24T07:00:00,prt,21.13
2022-12-24T07:01:00,prt,18.99
2022-12-24T07:02:00,prt,15.46
2022-12-24T07:03:00,prt,17.94
2022-12-24T07:04:00,prt,20.90
2022-12-24T07:05:00,prt,22.21
2022-12-24T07:06:00,prt,17.68
2022-12-24T07:07:00,prt,17.69
2022-12-24T07:08:00,prt,16.10
2022-12-24T07:09:00,prt,19.27
2022-12-24T07:10:00,prt,18.36
2022-12-24T07:11:00,prt,19.83
2022-12-24T07:12:00,prt,19.34
2022-12-24T07:13:00,prt,17.08
2022-12-24T07:14:00,prt,18.99
2022-12-24T07:15:00,prt,17.70
2022-12-24T07:16:00,prt,16.98
2022-12-24T07:17:00,prt,15.81
2022-12-24T07:18:00,prt,20.65
2022-12-24T07:19:00,prt,21.37
2022-12-24T07:20:00,prt,21.18
2022-12-24T07:21:00,prt,18.94
2022-12-24T07:22:00,prt,18.07
2022-12-24T07:23:00,prt,18.58
2022-12-24T07:24:00,prt,19.03
2022-12-24T07:25:00,prt,15.95
2022-12-24T07:26:00,prt,18.92
2022-12-24T07:27:00,prt,18.64
2022-12-24T07:28:00,prt,18.56
2022-12-24T07:29:00,prt,17.02
2022-12-24T07:30:00,prt,15.26
2022-12-24T07:31:00,prt,15.41
2022-12-24T07:32:00,prt,15.58
2022-12-24T07:33:00,prt,15.00
2022-12-24T07:34:00,prt,13.81
2022-12-24T07:35:00,prt,15.31
2022-12-24T07:36:00,prt,17.05
2022-12-24T07:37:00,prt,20.96
2022-12-24T07:38:00,prt,20.79
2022-12-24T07:39:00,prt,18.06
2022-12-24T07:40:00,prt,15.77
2022-12-24T07:41:00,prt,23.70
2022-12-24T07:42:00,prt,22.11
2022-12-24T07:43:00,prt,20.92
2022-12-24T07:44:00,prt,15.34
2022-12-24T07:45:00,prt,15.72
2022-12-24T07:46:00,prt,16.79
2022-12-24T07:47:00,prt,16.34
2022-12-24T07:48:00,prt,15.08
2022-12-24T07:49:00,prt,16.87
2022-12-24T07:50:00,prt,17.11
2022-12-24T07:51:00,prt,15.46
2022-12-24T07:52:00,prt,15.35
2022-12-24T07:53:00,prt,14.38
2022-12-24T07:54:00,prt,13.22
2022-12-24T07:55:00,prt,13.16
2022-12-24T07:56:00,prt,17.10
2022-12-24T07:57:00,prt,18.38
2022-12-24T07:58:00,prt,15.29
2022-12-24T07:59:00,prt,13.80
2022-12-24T08:00:00,prt,13.16
2022-12-24T08:01:00,prt,13.13
2022-12-24T08:02:00,prt,18.76
2022-12-24T08:03:00,prt,19.03
2022-12-24T08:04:00,prt,19.57
2022-12-24T08:05:00,prt,19.10
2022-12-24T08:06:00,prt,17.89
2022-12-24T08:07:00,prt,15.27
2022-12-24T08:08:00,prt,15.32
2022-12-24T08:09:00,prt,14.00
2022-12-24T08:10:00,prt,17.45
2022-12-24T08:11:00,prt,18.61
2022-12-24T08:12:00,prt,21.03
2022-12-24T08:13:00,prt,21.77
2022-12-24T08:14:00,prt,18.82
2022-12-24T08:15:00,prt,24.26
2022-12-24T08:16:00,prt,20.76
2022-12-24T08:17:00,prt,17.99
2022-12-24T08:18:00,prt,17.92
2022-12-24T08:19:00,prt,19.43
2022-12-24T08:20:00,prt,22.60
2022-12-24T08:21:00,prt,20.08
2022-12-24T08:22:00,prt,20.14
2022-12-24T08:23:00,prt,14.19
2022-12-24T08:24:00,prt,15.87
2022-12-24T08:25:00,prt,17.34
2022-12-24T08:26:00,prt,17.76
2022-12-24T08:27:00,prt,16.93
2022-12-24T08:28:00,prt,20.06
2022-12-24T08:29:00,prt,19.30
2022-12-24T08:30:00,prt,16.55
2022-12-24T08:31:00,prt,15.13
2022-12-24T08:32:00,prt,14.41
2022-12-24T08:33:00,prt,20.07
2022-12-24T08:34:00,prt,23.24
2022-12-24T08:35:00,prt,24.71
2022-12-24T08:36:00,prt,20.40
2022-12-24T08:37:00,prt,17.55
2022-12-24T08:38:00,prt,17.69
2022-12-24T08:39:00,prt,18.69
2022-12-24T08:40:00,prt,18.37
2022-12-24T08:41:00,prt,17.26
2022-12-24T08:42:00,prt,15.27
2022-12-24T08:43:00,prt,15.70
2022-12-24T08:44:00,prt,16.21
2022-12-24T08:45:00,prt,14.67
2022-12-24T08:46:00,prt,14.86
2022-12-24T08:47:00,prt,14.89
2022-12-24T08:48:00,prt,13.58
2022-12-24T08:49:00,prt,13.72
2022-12-24T08:50:00,prt,14.67
2022-12-24T08:51:00,prt,15.38
2022-12-24T08:52:00,prt,19.17
2022-12-24T08:53:00,prt,20.87
2022-12-24T08:54:00,prt,22.16
2022-12-24T08:55:00,prt,18.21
2022-12-24T08:56:00,prt,19.68
2022-12-24T08:57:00,prt,19.23
2022-12-24T08:58:00,prt,18.29
2022-12-24T08:59:00,prt,27.53
2022-12-24T09:00:00,prt,26.43
2022-12-24T09:01:00,prt,22.54
2022-12-24T09:02:00,prt,22.86
2022-12-24T09:03:00,prt,19.79
2022-12-24T09:04:00,prt,19.16
2022-12-24T09:05:00,prt,17.95
2022-12-24T09:06:00,prt,18.85
2022-12-24T09:07:00,prt,19.18
2022-12-24T09:08:00,prt,17.86
2022-12-24T09:09:00,prt,14.43
2022-12-24T09:10:00,prt,14.53
2022-12-24T09:11:00,prt,18.20
2022-12-24T09:12:00,prt,19.93
2022-12-24T09:13:00,prt,18.19
2022-12-24T09:14:00,prt,15.00
2022-12-24T09:15:00,prt,13.57
2022-12-24T09:16:00,prt,14.94
2022-12-24T09:17:00,prt,13.77
2022-12-24T09:18:00,prt,14.08
2022-12-24T09:19:00,prt,16.87
2022-12-24T09:20:00,prt,18.64
2022-12-24T09:21:00,prt,19.22
2022-12-24T09:22:00,prt,22.30
2022-12-24T09:23:00,prt,17.95
2022-12-24T09:24:00,prt,17.41
2022-12-24T09:25:00,prt,19.71
2022-12-24T09:26:00,prt,19.80
2022-12-24T09:27:00,prt,17.54
2022-12-24T09:28:00,prt,15.94
2022-12-24T09:29:00,prt,15.55
2022-12-24T09:30:00,prt,18.09
2022-12-24T09:31:00,prt,19.51
2022-12-24T09:32:00,prt,18.63
2022-12-24T09:33:00,prt,13.17
2022-12-24T09:34:00,prt,13.82
2022-12-24T09:35:00,prt,13.94
2022-12-24T09:36:00,prt,12.66
2022-12-24T09:37:00,prt,13.13
2022-12-24T09:38:00,prt,14.83
2022-12-24T09:39:00,prt,14.48
2022-12-24T09:40:00,prt,13.61
2022-12-24T09:41:00,prt,20.03
2022-12-24T09:42:00,prt,16.52
2022-12-24T09:43:00,prt,19.06
2022-12-24T09:44:00,prt,27.22
2022-12-24T09:45:00,prt,27.03
2022-12-24T09:46:00,prt,22.93
2022-12-24T09:47:00,prt,21.95
2022-12-24T09:48:00,prt,16.06
2022-12-24T09:49:00,prt,18.06
2022-12-24T09:50:00,prt,18.43
2022-12-24T09:51:00,prt,17.82
2022-12-24T09:52:00,prt,19.57
2022-12-24T09:53:00,prt,21.27
2022-12-24T09:54:00,prt,17.20
2022-12-24T09:55:00,prt,15.99
2022-12-24T09:56:00,prt,20.00
2022-12-24T09:57:00,prt,15.17
2022-12-24T09:58:00,prt,13.81
2022-12-24T09:59:00,prt,13.97
2022-12-24T10:00:00,prt,15.44
2022-12-24T10:01:00,prt,16.29
2022-12-24T10:02:00,prt,17.41
2022-12-24T10:03:00,prt,17.39
2022-12-24T10:04:00,prt,18.36
2022-12-24T10:05:00,prt,17.32
2022-12-24T10:06:00,prt,14.31
2022-12-24T10:07:00,prt,15.34
2022-12-24T10:08:00,prt,21.95
2022-12-24T10:09:00,prt,23.20
2022-12-24T10:10:00,prt,21.02
2022-12-24T10:11:00,prt,18.20
2022-12-24T10:12:00,prt,18.96
2022-12-24T10:13:00,prt,17.58
2022-12-24T10:14:00,prt,17.21
2022-12-24T10:15:00,prt,16.84
2022-12-24T10:16:00,prt,17.06
2022-12-24T10:17:00,prt,15.82
2022-12-24T10:18:00,prt,15.97
2022-12-24T10:19:00,prt,18.75
2022-12-24T10:20:00,prt,18.63
2022-12-24T10:21:00,prt,18.93
2022-12-24T10:22:00,prt,19.02
2022-12-24T10:23:00,prt,19.44
2022-12-24T10:24:00,prt,17.89
2022-12-24T10:25:00,prt,18.60
2022-12-24T10:26:00,prt,20.79
2022-12-24T10:27:00,prt,23.05
2022-12-24T10:28:00,prt,22.84
2022-12-24T10:29:00,prt,20.88
2022-12-24T10:30:00,prt,19.49
2022-12-24T10:31:00,prt,23.22
2022-12-24T10:32:00,prt,22.41
2022-12-24T10:33:00,prt,18.55
2022-12-24T10:34:00,prt,19.48
2022-12-24T10:35:00,prt,20.26
2022-12-24T10:36:00,prt,19.61
2022-12-24T10:37:00,prt,17.46
2022-12-24T10:38:00,prt,17.13
2022-12-24T10:39:00,prt,16.62
2022-12-24T10:40:00,prt,15.30
2022-12-24T10:41:00,prt,15.40
2022-12-24T10:42:00,prt,15.21
2022-12-24T10:43:00,prt,15.43
2022-12-24T10:44:00,prt,15.02
2022-12-24T10:45:00,prt,14.47
2022-12-24T10:46:00,prt,19.29
2022-12-24T10:47:00,prt,17.67
2022-12-24T10:48:00,prt,21.18
2022-12-24T10:49:00,prt,20.08
2022-12-24T10:50:00,prt,20.34
2022-12-24T10:51:00,prt,19.17
2022-12-24T10:52:00,prt,18.01
2022-12-24T10:53:00,prt,15.00
2022-12-24T10:54:00,prt,16.31
2022-12-24T10:55:00,prt,14.95
2022-12-24T10:56:00,prt,15.46
2022-12-24T10:57:00,prt,15.66
2022-12-24T10:58:00,prt,17.45
2022-12-24T10:59:00,prt,15.87
2022-12-24T11:00:00,prt,17.58
2022-12-24T11:01:00,prt,19.12
2022-12-24T11:02:00,prt,17.85
2022-12-24T11:03:00,prt,17.96
2022-12-24T11:04:00,prt,17.61
2022-12-24T11:05:00,prt,19.60
2022-12-24T11:06:00,prt,20.58
2022-12-24T11:07:00,prt,19.52
2022-12-24T11:08:00,prt,16.43
2022-12-24T11:09:00,prt,18.84
2022-12-24T11:10:00,prt,18.68
2022-12-24T11:11:00,prt,18.63
2022-12-24T11:12:00,prt,19.04
2022-12-24T11:13:00,prt,19.23
2022-12-24T11:14:00,prt,18.93
2022-12-24T11:15:00,prt,19.34
2022-12-24T11:16:00,prt,19.76
2022-12-24T11:17:00,prt,21.57
2022-12-24T11:18:00,prt,17.54
2022-12-24T11:19:00,prt,18.31
2022-12-24T11:20:00,prt,18.34
2022-12-24T11:21:00,prt,18.27
2022-12-24T11:22:00,prt,15.17
2022-12-24T11:23:00,prt,20.96
2022-12-24T11:24:00,prt,23.26
2022-12-24T11:25:00,prt,20.39
2022-12-24T11:26:00,prt,20.11
2022-12-24T11:27:00,prt,19.00
2022-12-24T11:28:00,prt,17.42
2022-12-24T11:29:00,prt,16.68
2022-12-24T11:30:00,prt,19.20
2022-12-24T11:31:00,prt,16.19
2022-12-24T11:32:00,prt,14.37
2022-12-24T11:33:00,prt,13.63
2022-12-24T11:34:00,prt,13.12
2022-12-24T11:35:00,prt,13.47
2022-12-24T11:36:00,prt,15.06
2022-12-24T11:37:00,prt,15.64
2022-12-24T11:38:00,prt,15.44
2022-12-24T11:39:00,prt,14.14
2022-12-24T11:40:00,prt,15.67
2022-12-24T11:41:00,prt,17.00
2022-12-24T11:42:00,prt,16.98
2022-12-24T11:43:00,prt,18.76
2022-12-24T11:44:00,prt,21.07
2022-12-24T11:45:00,prt,21.47
2022-12-24T11:46:00,prt,15.94
2022-12-24T11:47:00,prt,16.46
2022-12-24T11:48:00,prt,15.96
2022-12-24T11:49:00,prt,15.21
2022-12-24T11:50:00,prt,20.74
2022-12-24T11:51:00,prt,18.76
2022-12-24T11:52:00,prt,30.01
2022-12-24T11:53:00,prt,22.17
2022-12-24T11:54:00,prt,26.26
2022-12-24T11:55:00,prt,26.89
2022-12-24T11:56:00,prt,22.14
2022-12-24T11:57:00,prt,22.55
2022-12-24T11:58:00,prt,21.33
2022-12-24T11:59:00,prt,22.21
2022-12-24T12:00:00,prt,20.29
2022-12-24T12:01:00,prt,19.47
2022-12-24T12:02:00,prt,20.26
2022-12-24T12:03:00,prt,22.13
2022-12-24T12:04:00,prt,21.60
2022-12-24T12:05:00,prt,17.86
2022-12-24T12:06:00,prt,17.37
2022-12-24T12:07:00,prt,16.70
2022-12-24T12:08:00,prt,17.23
2022-12-24T12:09:00,prt,16.89
2022-12-24T12:10:00,prt,18.39
2022-12-24T12:11:00,prt,15.50
2022-12-24T12:12:00,prt,18.23
2022-12-24T12:13:00,prt,17.87
2022-12-24T12:14:00,prt,18.55
2022-12-24T12:15:00,prt,19.00
2022-12-24T12:16:00,prt,18.77
2022-12-24T12:17:00,prt,18.01
2022-12-24T12:18:00,prt,17.70
2022-12-24T12:19:00,prt,22.88
2022-12-24T12:20:00,prt,22.62
2022-12-24T12:21:00,prt,21.39
2022-12-24T12:22:00,prt,23.39
2022-12-24T12:23:00,prt,27.86
2022-12-24T12:24:00,prt,24.74
2022-12-24T12:25:00,prt,19.92
2022-12-24T12:26:00,prt,19.90
2022-12-24T12:27:00,prt,20.57
2022-12-24T12:28:00,prt,18.09
2022-12-24T12:29:00,prt,15.64
2022-12-24T12:30:00,prt,15.62
2022-12-24T12:31:00,prt,16.07
2022-12-24T12:32:00,prt,17.61
2022-12-24T12:33:00,prt,18.93
2022-12-24T12:34:00,prt,21.43
2022-12-24T12:35:00,prt,18.42
2022-12-24T12:36:00,prt,17.39
2022-12-24T12:37:00,prt,16.66
2022-12-24T12:38:00,prt,17.28
2022-12-24T12:39:00,prt,17.10
2022-12-24T12:40:00,prt,15.97
2022-12-24T12:41:00,prt,21.51
2022-12-24T12:42:00,prt,21.84
2022-12-24T12:43:00,prt,21.09
2022-12-24T12:44:00,prt,17.99
2022-12-24T12:45:00,prt,17.95
2022-12-24T12:46:00,prt,17.97
2022-12-24T12:47:00,prt,18.73
2022-12-24T12:48:00,prt,23.71
2022-12-24T12:49:00,prt,22.12
2022-12-24T12:50:00,prt,20.50
2022-12-24T12:51:00,prt,19.68
2022-12-24T12:52:00,prt,17.20
2022-12-24T12:53:00,prt,16.29
2022-12-24T12:54:00,prt,16.22
2022-12-24T12:55:00,prt,17.78
2022-12-24T12:56:00,prt,17.82
2022-12-24T12:57:00,prt,19.03
2022-12-24T12:58:00,prt,20.06
2022-12-24T12:59:00,prt,21.44
2022-12-24T13:00:00,prt,22.88
2022-12-24T13:01:00,prt,23.05
2022-12-24T13:02:00,prt,20.75
2022-12-24T13:03:00,prt,14.95
2022-12-24T13:04:00,prt,15.26
2022-12-24T13:05:00,prt,16.32
2022-12-24T13:06:00,prt,15.96
2022-12-24T13:07:00,prt,15.95
2022-12-24T13:08:00,prt,15.68
2022-12-24T13:09:00,prt,14.70
2022-12-24T13:10:00,prt,15.80
2022-12-24T13:11:00,prt,18.22
2022-12-24T13:12:00,prt,18.18
2022-12-24T13:13:00,prt,18.30
2022-12-24T13:14:00,prt,16.71
2022-12-24T13:15:00,prt,18.97
2022-12-24T13:16:00,prt,18.45
2022-12-24T13:17:00,prt,18.23
2022-12-24T13:18:00,prt,17.83